Tonopah, NV

4:44 PM PST on January 18, 2018 (GMT -0800)
Tonopah

Weather History for KTPH - May, 2013

Change the Weather History Date:

Saturday, May 25, 2013

  Actual Average Record
Temperature  
Mean Temperature 59 °F 62 °F  
Max Temperature 78 °F 77 °F 93 °F (1986)
Min Temperature 39 °F 46 °F 28 °F (1980)
Degree Days  
Heating Degree Days 6 5  
Month to date heating degree days 161 194  
Since 1 July heating degree days 4902 5387  
Cooling Degree Days 0 1  
Month to date cooling degree days 20 12  
Year to date cooling degree days 21 13  
Growing Degree Days 8 (Base 50)    
Moisture  
Dew Point 9 °F    
Average Humidity 15    
Maximum Humidity 22    
Minimum Humidity 7    
Precipitation  
Precipitation 0.00 in 0.02 in 0.61 in (2008)
Month to date precipitation 0.19 0.42  
Year to date precipitation 0.95 2.42  
Sea Level Pressure  
Sea Level Pressure 29.80 in    
Wind  
Wind Speed 8 mph (SW)    
Max Wind Speed 21 mph    
Max Gust Speed 26 mph    
Visibility 10 miles    
Events      
T = Trace of Precipitation, MM = Missing Value Source: NWS Daily Summary

Daily Weather History Graph

Daily Weather History Graph

Search for Another Location

Airport or City:

Trip Planner

Search our weather history database for the weather conditions in past years. The results will help you decide how hot, cold, wet, or windy it might be!

Date:

Astronomy

May. 25, 2013 Rise Set
Actual Time 5:30 AM PDT 8:00 PM PDT
Civil Twilight 5:00 AM PDT 8:31 PM PDT
Nautical Twilight 4:22 AM PDT 9:08 PM PDT
Astronomical Twilight 3:40 AM PDT 9:50 PM PDT
Moon 8:53 PM PDT (5/25) 6:01 AM PDT (5/25)
Length of Visible Light 15h 31m
Length of Day
14h 30m
Waxing Gibbous, 99% of the Moon is Illuminated
May 25
Waxing Gibbous
May 31
Last Quarter
Jun 8
New
Jun 16
First Quarter
Jun 23
Full

Hourly Weather History & Observations

Time (PDT) Temp. Windchill Dew Point Humidity Pressure Visibility Wind Dir Wind Speed Gust Speed Precip Events Conditions
12:56 AM 48.9 °F - 1.9 °F 15% 29.81 in 10.0 mi NNE 6.9 mph - N/A   Clear
1:56 AM 48.9 °F - 3.0 °F 15% 29.79 in 10.0 mi Calm Calm - N/A   Clear
2:56 AM 43.0 °F 41.3 °F 1.0 °F 17% 29.81 in 10.0 mi NNW 3.5 mph - N/A   Clear
3:56 AM 41.0 °F 38.0 °F -0.0 °F 18% 29.81 in 10.0 mi NNW 4.6 mph - N/A   Clear
4:56 AM 39.9 °F 34.5 °F -0.9 °F 18% 29.82 in 10.0 mi North 8.1 mph - N/A   Clear
5:56 AM 39.9 °F 34.5 °F 3.0 °F 21% 29.83 in 10.0 mi NNE 8.1 mph - N/A   Clear
6:56 AM 48.9 °F - 3.9 °F 16% 29.83 in 10.0 mi North 4.6 mph - N/A   Clear
7:56 AM 57.0 °F - 7.0 °F 14% 29.82 in 10.0 mi Calm Calm - N/A   Clear
8:56 AM 60.1 °F - 9.0 °F 13% 29.83 in 10.0 mi Calm Calm - N/A   Clear
9:56 AM 64.0 °F - 10.0 °F 12% 29.83 in 10.0 mi Calm Calm - N/A   Clear
10:56 AM 66.9 °F - 9.0 °F 10% 29.82 in 10.0 mi Variable 3.5 mph - N/A   Clear
11:56 AM 70.0 °F - 10.0 °F 10% 29.83 in 10.0 mi South 10.4 mph - N/A   Clear
12:56 PM 71.1 °F - 9.0 °F 9% 29.82 in 10.0 mi SSW 10.4 mph - N/A   Clear
1:56 PM 75.0 °F - 7.0 °F 7% 29.80 in 10.0 mi SW 11.5 mph 17.3 mph N/A   Clear
2:56 PM 75.9 °F - 10.0 °F 8% 29.79 in 10.0 mi South 13.8 mph 23.0 mph N/A   Clear
3:56 PM 78.1 °F - 9.0 °F 7% 29.77 in 10.0 mi SW 16.1 mph 24.2 mph N/A   Clear
4:56 PM 77.0 °F - 12.0 °F 8% 29.76 in 10.0 mi SW 15.0 mph 23.0 mph N/A   Clear
5:56 PM 75.9 °F - 12.9 °F 9% 29.76 in 10.0 mi SW 11.5 mph - N/A   Clear
6:56 PM 73.9 °F - 12.0 °F 9% 29.74 in 10.0 mi South 15.0 mph - N/A   Clear
7:56 PM 69.1 °F - 15.1 °F 13% 29.74 in 10.0 mi South 19.6 mph 26.5 mph N/A   Clear
8:56 PM 66.0 °F - 16.0 °F 15% 29.75 in 10.0 mi South 13.8 mph 23.0 mph N/A   Clear
9:56 PM 64.0 °F - 17.1 °F 16% 29.77 in 10.0 mi SSW 13.8 mph - N/A   Clear
10:56 PM 60.1 °F - 17.1 °F 19% 29.78 in 10.0 mi WSW 6.9 mph - N/A   Clear
11:56 PM 57.0 °F - 14.0 °F 18% 29.79 in 10.0 mi WNW 4.6 mph - N/A   Clear